GEFSNE_500_meanwind_174.txt.gz
Wind_Speed
3 3 2 2 3 3 3 3 4 4 5 6 6 7 9 10 10 11 11 12 12 13 13 13 13 14 14 15 15 16 16 16 17 17 17 17 17 18
4 4 4 3 4 4 4 4 5 5 6 6 6 8 9 10 11 12 12 13 13 13 14 14 14 15 15 16 17 17 18 18 18 18 18 19 20 20
5 5 5 6 6 5 5 6 6 8 8 8 8 9 10 11 13 13 13 13 14 14 15 15 16 16 17 18 18 18 19 19 19 20 20 21 22 23
7 7 7 6 6 6 7 7 8 9 10 9 9 10 11 12 14 15 15 15 16 16 17 17 17 18 19 19 20 20 21 21 22 23 23 24 25 25
8 8 8 7 7 8 9 9 10 10 10 10 12 13 13 14 15 16 17 17 18 18 19 19 20 20 21 22 22 23 23 24 25 26 27 28 28 29
9 9 9 8 9 10 11 11 12 12 12 13 14 14 15 16 17 18 18 19 19 20 22 22 22 23 24 25 26 27 27 28 29 29 30 31 32 32
11 10 11 11 11 12 12 13 14 14 15 15 16 17 17 18 18 19 20 21 22 22 23 24 25 26 27 28 29 30 31 32 32 33 33 34 35 35
12 12 13 13 14 14 15 15 16 16 17 18 18 19 20 20 20 21 22 23 24 25 26 27 29 30 31 32 33 33 34 34 35 36 36 37 37 38
14 14 15 15 15 16 17 17 18 18 19 20 20 21 22 23 23 25 26 27 28 29 30 31 32 32 33 33 34 35 36 37 37 38 39 39 39 39
17 17 17 18 18 19 19 19 20 20 21 22 23 24 25 26 27 28 29 30 31 32 32 33 34 35 35 36 37 37 38 39 40 40 41 40 41 41
18 19 19 20 21 21 21 22 22 23 24 24 25 27 28 29 30 31 32 32 33 34 35 36 36 37 37 38 39 40 41 42 42 42 42 42 42 43
20 21 21 22 23 23 23 24 25 25 26 27 28 30 30 31 32 33 33 34 35 36 37 38 38 38 38 39 41 42 43 43 44 44 45 45 45 45
22 23 24 24 25 25 26 26 27 28 28 29 30 31 32 33 34 35 36 37 38 38 39 39 40 40 41 41 41 43 44 44 45 46 47 47 48 47
24 24 25 25 26 27 27 28 29 30 31 32 33 34 35 36 37 38 39 39 39 40 40 41 41 42 42 42 43 43 44 45 46 47 48 49 50 50
25 26 26 27 28 29 30 30 32 33 34 35 36 36 37 39 40 41 41 41 41 42 43 43 43 44 45 45 45 46 46 46 48 48 49 49 51 52
27 28 29 29 30 31 32 33 34 35 36 37 37 38 39 40 41 42 42 43 43 44 45 46 46 46 46 47 47 48 48 49 49 50 51 51 52 53
29 30 31 32 32 33 35 36 37 38 39 39 40 41 41 42 43 43 44 45 45 45 46 47 48 48 48 48 49 49 51 51 52 52 52 53 54 55
31 32 33 34 35 36 37 38 39 40 41 42 42 43 43 44 44 45 45 46 46 47 47 48 49 50 50 51 52 52 52 52 52 54 55 55 54 55
33 34 35 35 36 37 38 39 40 41 43 44 44 45 45 45 46 46 47 47 48 48 49 50 51 52 52 52 53 54 54 54 55 55 55 56 56 55
34 35 36 37 38 39 40 41 42 43 44 45 45 46 47 48 48 49 49 50 51 51 52 53 54 54 55 55 54 55 56 57 57 57 57 57 56 56
37 37 38 39 40 42 43 44 45 46 46 47 47 48 49 50 50 51 52 52 53 54 54 55 55 56 57 57 56 55 56 57 57 58 58 58 57 56
39 40 40 42 43 44 45 46 48 49 49 49 50 51 52 52 53 53 55 55 56 56 56 56 57 57 57 57 57 57 56 57 57 57 57 57 56 55
41 42 43 45 46 47 49 50 51 51 52 53 54 54 54 55 56 57 57 57 57 57 57 57 57 57 57 58 58 57 57 56 56 55 55 55 55 54

GEFSNE_500_meanwind_180.txt.gz
Wind_Speed
4 3 3 3 3 3 4 4 5 5 6 7 8 9 10 10 11 12 13 13 14 15 15 16 17 18 18 18 19 19 20 20 21 21 21 21 21 21
5 4 4 4 4 5 5 6 6 6 7 8 9 9 10 11 12 13 14 15 15 16 17 18 18 19 20 20 21 21 21 21 22 22 23 23 23 23
5 5 6 6 7 7 7 8 8 8 9 10 10 11 12 12 13 14 15 16 17 18 19 19 20 21 21 22 22 23 23 23 24 24 24 24 25 25
7 8 8 8 8 9 9 9 10 10 11 12 12 13 14 14 15 16 17 18 19 19 21 22 22 22 23 24 24 25 25 25 26 26 26 27 27 27
9 9 10 10 10 10 10 11 12 13 13 14 15 15 16 17 17 18 20 21 22 22 23 23 24 25 25 26 27 27 28 28 29 29 29 30 30 31
11 11 12 11 12 12 13 13 14 15 16 16 17 18 19 19 20 21 22 23 23 24 25 25 26 27 28 29 30 30 31 32 32 32 33 33 33 34
13 14 14 14 14 14 15 16 16 17 18 19 19 20 21 22 22 23 24 25 26 26 27 28 29 30 30 31 32 32 33 34 35 35 36 36 37 36
15 15 16 16 16 17 17 18 19 20 20 21 21 22 23 24 25 26 27 27 28 28 28 29 30 31 31 32 33 34 35 36 37 38 38 39 39 39
16 17 17 17 18 18 19 20 21 21 22 23 23 24 25 26 26 27 28 28 29 29 29 30 31 33 34 34 35 36 37 38 38 39 39 39 40 41
19 19 19 19 19 20 21 21 22 22 23 24 24 25 26 27 27 28 28 29 29 30 31 32 33 34 35 36 37 38 39 39 40 40 40 41 42 42
20 20 20 21 21 21 22 22 23 24 25 25 26 27 28 28 29 30 30 31 31 32 34 34 35 36 37 38 39 40 40 41 41 41 42 42 43 43
22 22 22 23 23 23 23 24 25 26 26 27 28 28 29 30 31 32 32 33 33 34 36 37 37 39 39 40 41 41 41 42 43 43 44 44 45 45
23 24 24 25 25 26 25 26 27 27 28 29 30 30 32 33 34 35 35 36 36 37 39 39 40 41 41 41 42 43 43 43 44 45 46 46 46 47
24 25 26 26 27 27 28 28 28 29 30 31 32 33 34 35 36 36 37 38 39 40 41 42 42 43 43 42 42 42 43 44 45 46 47 47 48 48
26 26 27 27 28 29 29 30 31 32 33 33 34 35 36 37 38 39 40 41 42 42 43 44 44 45 45 44 43 43 44 45 46 47 48 48 49 49
27 28 28 29 30 31 32 33 33 34 35 36 37 38 39 40 41 41 42 43 43 44 45 46 46 46 46 46 46 45 46 47 48 49 50 50 51 51
29 29 30 31 32 32 33 34 35 36 37 37 38 39 40 41 42 43 44 44 44 45 46 47 47 48 48 48 48 49 49 50 50 51 52 52 52 53
30 30 31 31 32 34 35 36 37 38 38 39 40 41 42 43 44 45 46 46 46 47 48 48 49 50 50 50 51 52 52 52 52 53 53 53 53 54
31 32 33 33 34 35 36 37 38 39 41 42 43 44 44 45 46 47 48 48 48 49 50 51 52 53 53 52 52 53 54 54 54 54 55 55 55 55
33 34 34 35 37 38 39 39 40 41 43 44 45 46 47 47 48 49 49 50 51 52 53 54 55 56 56 55 54 54 55 55 55 55 55 56 56 57
35 36 37 38 39 40 41 42 43 44 46 47 47 48 49 50 50 51 52 53 54 55 56 56 57 58 58 57 56 55 55 56 57 57 58 58 57 57
37 39 40 40 41 42 43 44 46 46 47 48 49 50 51 52 52 53 54 55 56 57 58 57 58 58 58 58 57 57 57 58 59 59 59 60 59 58
39 40 41 42 43 44 45 46 47 47 48 49 50 52 53 54 55 56 57 58 58 58 58 58 58 58 58 59 59 59 59 59 59 58 58 58 58 57

GEFSNE_500_meanwind_186.txt.gz
Wind_Speed
2 3 3 3 3 4 5 6 7 7 8 8 9 10 11 11 12 13 14 14 15 16 16 16 18 19 19 20 21 21 22 22 23 23 23 23 24 24
4 4 4 5 5 6 6 7 8 8 9 9 10 11 12 13 13 13 14 15 16 17 18 18 19 20 21 22 23 24 24 24 25 25 25 26 26 26
6 6 6 6 7 8 8 9 9 10 10 11 11 12 13 14 14 15 16 16 17 18 19 20 21 22 23 24 24 26 26 26 27 28 29 29 29 29
8 9 8 9 9 10 10 10 11 12 12 13 13 14 15 15 16 17 18 19 19 20 21 22 23 24 25 26 26 27 27 28 29 30 31 31 31 31
10 10 10 11 12 12 12 12 13 14 14 15 16 17 17 18 18 19 20 21 22 23 23 25 26 26 27 28 28 29 30 30 30 31 32 33 33 34
12 12 13 13 14 14 14 14 15 16 16 17 18 18 19 19 20 21 22 23 24 25 25 27 28 28 29 29 30 31 32 32 33 33 34 35 36 36
14 14 15 15 15 15 15 16 17 18 18 19 19 20 21 21 22 23 24 25 26 27 28 29 30 30 30 31 32 33 34 34 35 35 36 37 37 38
15 15 16 16 16 17 17 18 18 19 19 20 20 21 22 23 24 25 26 27 28 29 29 30 31 31 31 32 33 34 34 35 36 37 37 38 39 39
17 17 18 18 18 18 19 20 20 20 21 21 22 23 23 24 25 26 27 27 29 30 30 30 31 31 32 33 35 35 36 37 38 39 40 41 41 42
18 18 19 19 20 21 21 21 21 22 23 23 24 25 25 26 27 28 29 29 30 31 32 32 33 34 35 35 36 37 38 39 40 41 42 43 43 44
20 20 20 21 21 21 22 22 23 24 25 25 26 27 27 28 29 30 30 31 32 33 34 34 34 35 36 37 38 39 40 41 42 43 44 45 45 46
22 22 23 23 23 24 24 24 25 26 27 27 28 29 29 30 31 31 32 33 33 34 35 36 37 38 38 39 40 41 42 43 44 45 45 46 46 46
24 24 24 25 25 25 26 26 27 28 28 29 30 30 31 32 32 33 34 35 35 36 36 37 38 39 40 39 40 42 43 44 45 46 46 46 46 47
25 26 26 27 27 27 27 28 29 29 30 31 31 32 32 33 34 34 35 36 37 38 38 39 40 40 41 41 42 43 44 45 46 47 47 47 48 48
26 27 27 28 28 28 29 30 30 31 32 32 33 33 34 35 36 36 37 37 38 39 40 41 42 42 43 43 44 44 45 46 48 49 49 49 50 51
27 29 29 29 29 30 30 31 31 32 33 33 34 35 35 36 37 38 38 39 40 41 43 44 44 45 45 46 47 47 49 49 50 50 51 51 52 52
28 29 30 30 30 30 31 31 32 33 34 34 35 35 37 38 39 40 41 42 43 43 44 45 46 47 47 48 49 50 51 51 52 52 52 52 52 53
29 29 30 31 31 32 33 34 34 35 35 36 37 38 39 41 42 43 44 45 45 46 47 47 48 49 49 50 50 51 52 53 54 54 54 54 54 55
29 30 30 31 33 34 35 35 36 37 38 38 40 41 42 43 45 46 46 47 47 48 49 50 51 51 51 52 52 54 55 56 57 56 56 56 56 56
30 30 32 33 34 36 37 37 38 39 39 41 42 43 44 46 47 48 49 49 50 50 51 51 52 53 54 55 56 56 58 59 59 58 58 58 58 57
33 33 34 35 36 38 39 39 40 40 41 43 44 45 46 47 48 49 50 50 51 51 52 53 54 55 57 58 58 58 59 59 60 60 59 58 56 55
35 35 36 37 38 39 40 41 41 41 42 43 44 46 47 48 49 50 51 51 52 52 53 54 55 56 57 58 59 59 58 58 58 57 57 56 55 54
36 37 38 39 39 40 41 42 42 42 44 45 47 48 49 49 50 50 50 51 51 52 53 54 55 56 56 57 58 58 57 56 55 53 53 53 53 53

GEFSNE_500_meanwind_192.txt.gz
Wind_Speed
6 7 7 8 8 8 8 8 9 9 10 10 11 12 12 13 13 13 13 14 15 16 17 18 19 20 21 21 22 22 23 24 24 25 25 25 25 25
7 8 8 9 9 9 9 10 11 11 11 12 13 13 13 14 15 15 16 16 17 18 19 20 21 22 23 24 25 25 26 26 26 26 27 27 27 27
9 9 9 10 10 10 11 11 12 13 13 13 13 14 15 16 17 17 18 19 19 20 21 22 23 24 25 25 26 27 28 28 28 28 28 29 29 29
10 10 11 11 12 12 13 13 14 14 15 15 15 16 17 17 18 19 20 21 22 22 23 23 24 25 26 27 27 28 29 29 29 30 30 30 30 30
12 12 13 14 14 15 15 16 16 16 17 17 18 18 18 19 19 20 21 22 23 23 24 25 26 26 27 28 29 29 30 30 30 30 30 31 32 33
13 14 14 15 15 16 16 17 18 19 19 20 20 21 20 21 22 23 24 24 24 25 25 26 27 27 29 29 29 30 30 31 32 32 33 33 34 35
14 14 15 15 16 16 17 18 19 20 21 21 22 22 22 23 24 24 25 25 26 26 27 28 28 28 29 29 30 30 31 32 33 34 35 36 37 38
16 16 16 16 17 18 18 19 20 21 22 23 23 24 24 24 25 25 26 26 27 28 28 28 29 30 30 31 32 32 33 34 35 36 37 38 39 39
17 17 18 19 19 19 20 20 21 22 23 24 24 24 25 25 26 26 27 27 28 28 29 30 31 31 32 33 33 34 35 36 37 38 39 40 40 40
18 18 19 20 20 21 21 22 23 24 25 25 25 26 26 27 27 28 28 29 30 31 31 31 32 33 33 35 36 37 37 38 39 40 40 41 41 41
19 20 20 21 22 23 24 25 25 26 26 26 27 28 29 29 29 30 30 30 30 31 33 33 33 34 35 36 37 38 39 40 40 40 41 41 41 42
21 22 22 23 24 25 26 26 27 27 27 28 28 29 29 30 30 31 31 31 32 32 33 34 35 36 36 38 39 39 39 40 41 42 42 43 43 44
23 24 24 25 26 26 27 28 28 29 29 29 29 30 30 31 32 33 33 34 34 35 36 36 37 38 38 38 39 40 41 41 41 42 43 44 45 46
24 25 26 26 27 27 28 29 29 30 30 30 31 31 32 33 34 35 35 36 36 37 37 38 38 39 40 39 39 40 41 43 44 44 45 46 47 48
26 26 27 28 28 29 30 30 31 31 31 32 32 33 33 34 35 36 37 37 38 38 39 40 41 41 42 42 42 42 42 44 45 46 47 48 49 50
26 27 28 29 29 30 30 31 32 32 32 33 33 34 35 36 37 38 38 39 40 41 42 43 44 44 44 45 45 45 46 47 47 49 49 50 51 52
28 29 29 30 30 30 31 32 31 32 33 34 34 36 37 38 39 40 41 41 43 43 44 45 46 47 47 47 47 48 48 49 50 50 51 51 52 53
28 29 29 29 29 29 30 31 32 33 34 35 36 37 38 39 40 41 42 43 44 45 45 46 46 47 47 47 48 49 49 50 50 51 51 52 51 52
28 29 29 30 30 31 31 32 33 34 35 36 37 38 39 40 41 42 43 43 44 45 46 46 46 47 47 46 47 49 50 50 51 51 52 53 53 53
30 30 31 31 32 33 34 34 35 36 37 38 38 39 40 41 42 43 44 44 45 45 46 46 47 47 48 48 47 48 50 51 52 52 52 53 52 52
31 32 33 34 34 35 36 36 37 38 38 39 40 41 42 43 44 44 45 46 47 46 46 47 48 48 49 49 49 49 50 51 52 52 52 52 51 50
33 33 35 36 36 36 37 37 39 40 40 41 42 43 44 44 45 46 46 47 47 47 48 48 49 49 49 49 50 50 50 50 51 52 52 52 51 49
34 35 36 36 36 37 38 39 40 41 41 42 43 44 45 45 46 47 47 48 48 48 48 48 48 48 49 49 50 50 50 50 50 50 50 51 50 49